| time (UTC) | temp C | wind direction | speed KPH | gust KPH | rain 1hr cm | rain 24hr cm | rain mn cm | humidity % | barometer mb |
| 20260906093053 | 12 | 0 | 0.0 | 0.0 | 1.04 | 1.80 | 1.37 | 96 | 1015.3 |
| 20260906091541 | 13 | 0 | 0.0 | 3.2 | 0.76 | 1.47 | 1.07 | 96 | 1015.1 |
| 20260906090048 | 13 | 0 | 0.0 | 1.6 | 0.71 | 1.42 | 0.99 | 96 | 1015.0 |
| 20260906084551 | 13 | 0 | 0.0 | 0.0 | 0.30 | 1.02 | 0.58 | 96 | 1014.8 |
| 20260906083042 | 13 | 0 | 0.0 | 1.6 | 0.05 | 0.76 | 0.33 | 96 | 1014.8 |
| 20260906081540 | 13 | 0 | 0.0 | 0.0 | 0.03 | 0.74 | 0.30 | 96 | 1014.7 |
| 20260906080054 | 13 | 0 | 0.0 | 0.0 | 0.03 | 0.71 | 0.28 | 96 | 1014.7 |
| 20260906074548 | 13 | 0 | 0.0 | 0.0 | 0.05 | 0.71 | 0.28 | 96 | 1014.6 |
| 20260906073040 | 13 | 0 | 0.0 | 0.0 | 0.08 | 0.71 | 0.28 | 96 | 1014.7 |
| 20260906071540 | 13 | 0 | 0.0 | 0.0 | 0.18 | 0.71 | 0.28 | 96 | 1014.5 |
| 20260906070042 | 13 | 0 | 0.0 | 0.0 | 0.25 | 0.69 | 0.25 | 96 | 1014.5 |
| 20260906064539 | 13 | 0 | 0.0 | 0.0 | 0.23 | 0.66 | 0.23 | 96 | 1014.6 |
| 20260906063049 | 13 | 0 | 0.0 | 0.0 | 0.20 | 0.64 | 0.20 | 96 | 1014.6 |
| 20260906061543 | 13 | 0 | 0.0 | 0.0 | 0.10 | 0.53 | 0.10 | 96 | 1014.6 |
| 20260906060054 | 13 | 0 | 0.0 | 0.0 | 0.00 | 0.43 | 0.00 | 96 | 1014.5 |
| 20260906054548 | 13 | 0 | 0.0 | 0.0 | 0.00 | 0.43 | 0.00 | 96 | 1014.4 |
| 20260906053045 | 13 | 0 | 0.0 | 0.0 | 0.00 | 0.43 | 0.00 | 96 | 1014.5 |
| 20260906051545 | 13 | 0 | 0.0 | 0.0 | 0.00 | 0.43 | 0.00 | 96 | 1014.5 |
| 20260906050046 | 13 | 0 | 0.0 | 0.0 | 0.00 | 0.43 | 0.00 | 96 | 1014.6 |
| 20260906044541 | 14 | 0 | 0.0 | 0.0 | 0.00 | 0.43 | 0.00 | 96 | 1014.7 |
| 20260906043043 | 14 | 0 | 0.0 | 0.0 | 0.03 | 0.43 | 0.00 | 96 | 1014.7 |
| 20260906041547 | 14 | 0 | 0.0 | 0.0 | 0.03 | 0.43 | 0.00 | 96 | 1014.7 |
| 20260906040049 | 14 | 0 | 0.0 | 0.0 | 0.03 | 0.43 | 0.00 | 96 | 1014.6 |
| 20260906034542 | 14 | 0 | 0.0 | 0.0 | 0.05 | 0.43 | 0.43 | 96 | 1014.6 |
| 20260906033041 | 14 | 0 | 0.0 | 0.0 | 0.03 | 0.41 | 0.41 | 96 | 1014.5 |
| 20260906031541 | 14 | 0 | 0.0 | 3.2 | 0.05 | 0.41 | 0.41 | 96 | 1014.2 |
| 20260906030046 | 14 | 0 | 0.0 | 1.6 | 0.08 | 0.41 | 0.41 | 95 | 1014.2 |
| 20260906024541 | 14 | 0 | 0.0 | 0.0 | 0.05 | 0.38 | 0.38 | 95 | 1014.0 |
| 20260906023046 | 14 | 0 | 0.0 | 3.2 | 0.08 | 0.38 | 0.38 | 95 | 1014.0 |
| 20260906021545 | 14 | 0 | 0.0 | 1.6 | 0.15 | 0.36 | 0.36 | 94 | 1013.9 |
| 20260906020053 | 14 | 0 | 0.0 | 0.0 | 0.18 | 0.33 | 0.33 | 94 | 1014.0 |
| 20260906014546 | 14 | 0 | 0.0 | 0.0 | 0.23 | 0.33 | 0.33 | 94 | 1013.9 |
| 20260906013047 | 14 | 0 | 0.0 | 0.0 | 0.28 | 0.30 | 0.30 | 94 | 1014.0 |
| 20260906011555 | 15 | 0 | 0.0 | 3.2 | 0.18 | 0.18 | 0.18 | 93 | 1014.1 |
| 20260906010043 | 15 | 0 | 0.0 | 0.0 | 0.13 | 0.13 | 0.13 | 92 | 1013.9 |
| 20260906004544 | 15 | 0 | 0.0 | 0.0 | 0.10 | 0.10 | 0.10 | 91 | 1013.7 |
| 20260906003046 | 15 | 0 | 0.0 | 3.2 | 0.03 | 0.03 | 0.03 | 90 | 1013.7 |
| 20260906001543 | 16 | 0 | 0.0 | 4.8 | 0.00 | 0.00 | 0.00 | 87 | 1013.6 |
| 20260906000042 | 16 | 0 | 0.0 | 4.8 | 0.00 | 0.00 | 0.00 | 86 | 1013.5 |
| 20260905234541 | 17 | 0 | 0.0 | 1.6 | 0.00 | 0.00 | 0.00 | 87 | 1013.3 |
| 20260905233102 | 17 | 0 | 0.0 | 3.2 | 0.00 | 0.00 | 0.00 | 86 | 1013.1 |
| 20260905231551 | 17 | 325 | 0.0 | 3.2 | 0.00 | 0.00 | 0.00 | 85 | 1012.9 |
| 20260905230051 | 17 | 0 | 0.0 | 1.6 | 0.00 | 0.00 | 0.00 | 83 | 1012.8 |
| 20260905224605 | 18 | 0 | 0.0 | 0.0 | 0.00 | 0.00 | 0.00 | 82 | 1012.5 |
| 20260905223041 | 18 | 0 | 0.0 | 4.8 | 0.00 | 0.00 | 0.00 | 81 | 1012.3 |
| 20260905221542 | 18 | 0 | 0.0 | 3.2 | 0.00 | 0.00 | 0.00 | 81 | 1012.2 |
| 20260905220048 | 19 | 0 | 0.0 | 0.0 | 0.00 | 0.00 | 0.00 | 82 | 1012.2 |
| 20260905214545 | 19 | 0 | 0.0 | 0.0 | 0.00 | 0.00 | 0.00 | 81 | 1011.9 |
| 20260905213043 | 19 | 0 | 0.0 | 0.0 | 0.00 | 0.00 | 0.00 | 79 | 1011.8 |
| 20260905211543 | 19 | 0 | 0.0 | 0.0 | 0.00 | 0.00 | 0.00 | 78 | 1011.6 |
| 20260905210049 | 20 | 0 | 0.0 | 1.6 | 0.00 | 0.00 | 0.00 | 76 | 1011.6 |
| 20260905204544 | 20 | 0 | 0.0 | 1.6 | 0.00 | 0.00 | 0.00 | 76 | 1011.5 |
| 20260905203043 | 20 | 0 | 0.0 | 4.8 | 0.00 | 0.00 | 0.00 | 73 | 1011.5 |
| 20260905201542 | 21 | 217 | 0.0 | 4.8 | 0.00 | 0.00 | 0.00 | 71 | 1011.5 |
| 20260905200048 | 21 | 0 | 0.0 | 4.8 | 0.00 | 0.00 | 0.00 | 71 | 1011.5 |
| 20260905194541 | 21 | 0 | 0.0 | 4.8 | 0.00 | 0.00 | 0.00 | 74 | 1011.4 |
| 20260905193046 | 20 | 338 | 0.0 | 3.2 | 0.00 | 0.00 | 0.00 | 75 | 1011.4 |
| 20260905191548 | 20 | 0 | 0.0 | 6.4 | 0.00 | 0.00 | 0.00 | 75 | 1011.5 |
| 20260905190059 | 20 | 0 | 0.0 | 3.2 | 0.00 | 0.00 | 0.00 | 73 | 1011.6 |
| 20260905184558 | 20 | 340 | 0.0 | 6.4 | 0.00 | 0.00 | 0.00 | 75 | 1011.6 |
| 20260905183043 | 20 | 6 | 0.0 | 3.2 | 0.00 | 0.00 | 0.00 | 75 | 1011.5 |
| 20260905181542 | 20 | 0 | 0.0 | 4.8 | 0.00 | 0.00 | 0.00 | 74 | 1011.5 |
| 20260905180050 | 20 | 0 | 0.0 | 4.8 | 0.00 | 0.00 | 0.00 | 74 | 1011.6 |
| 20260905174558 | 20 | 0 | 0.0 | 3.2 | 0.00 | 0.00 | 0.00 | 74 | 1011.6 |
| 20260905173041 | 20 | 0 | 0.0 | 4.8 | 0.00 | 0.00 | 0.00 | 74 | 1011.6 |
| 20260905171540 | 20 | 353 | 0.0 | 4.8 | 0.00 | 0.00 | 0.00 | 74 | 1011.3 |
| 20260905170044 | 20 | 0 | 0.0 | 8.0 | 0.00 | 0.00 | 0.00 | 75 | 1011.4 |
| 20260905164544 | 20 | 348 | 0.0 | 4.8 | 0.00 | 0.00 | 0.00 | 79 | 1011.4 |
| 20260905163050 | 20 | 0 | 0.0 | 4.8 | 0.00 | 0.00 | 0.00 | 75 | 1011.4 |
| 20260905161544 | 20 | 0 | 0.0 | 4.8 | 0.00 | 0.00 | 0.00 | 80 | 1011.5 |
| 20260905160044 | 19 | 126 | 0.0 | 3.2 | 0.00 | 0.00 | 0.00 | 82 | 1011.5 |
| 20260905154552 | 19 | 113 | 0.0 | 9.7 | 0.00 | 0.00 | 0.00 | 79 | 1011.5 |
| 20260905153046 | 20 | 311 | 1.6 | 4.8 | 0.00 | 0.00 | 0.00 | 76 | 1011.5 |
| 20260905151544 | 19 | 0 | 0.0 | 4.8 | 0.00 | 0.00 | 0.00 | 80 | 1011.5 |
| 20260905150043 | 19 | 17 | 1.6 | 9.7 | 0.00 | 0.00 | 0.00 | 80 | 1011.5 |
| 20260905144546 | 18 | 0 | 0.0 | 3.2 | 0.00 | 0.00 | 0.00 | 84 | 1011.4 |
| 20260905143043 | 18 | 0 | 0.0 | 8.0 | 0.00 | 0.00 | 0.00 | 86 | 1011.6 |
| 20260905141546 | 17 | 0 | 0.0 | 4.8 | 0.00 | 0.00 | 0.00 | 88 | 1011.4 |
| 20260905140047 | 17 | 0 | 0.0 | 6.4 | 0.00 | 0.00 | 0.00 | 90 | 1011.6 |
| 20260905134541 | 16 | 0 | 0.0 | 3.2 | 0.00 | 0.00 | 0.00 | 91 | 1011.5 |
| 20260905133042 | 16 | 92 | 0.0 | 3.2 | 0.00 | 0.00 | 0.00 | 94 | 1011.2 |
| 20260905131559 | 15 | 0 | 0.0 | 4.8 | 0.00 | 0.00 | 0.00 | 96 | 1011.2 |
| 20260905130045 | 15 | 0 | 0.0 | 0.0 | 0.00 | 0.00 | 0.00 | 97 | 1011.3 |
| 20260905124548 | 15 | 0 | 0.0 | 1.6 | 0.00 | 0.00 | 0.00 | 97 | 1011.4 |
| 20260905123053 | 14 | 0 | 0.0 | 0.0 | 0.00 | 0.00 | 0.00 | 97 | 1011.4 |
| 20260905121545 | 13 | 0 | 0.0 | 0.0 | 0.00 | 0.00 | 0.00 | 97 | 1011.2 |
| 20260905120043 | 13 | 0 | 0.0 | 0.0 | 0.00 | 0.00 | 0.00 | 97 | 1011.4 |
| 20260905114545 | 13 | 0 | 0.0 | 0.0 | 0.00 | 0.00 | 0.00 | 97 | 1011.4 |
| 20260905113044 | 13 | 0 | 0.0 | 0.0 | 0.00 | 0.00 | 0.00 | 97 | 1011.1 |
| 20260905111551 | 12 | 0 | 0.0 | 0.0 | 0.00 | 0.00 | 0.00 | 97 | 1010.9 |
| 20260905110041 | 12 | 0 | 0.0 | 0.0 | 0.00 | 0.00 | 0.00 | 97 | 1010.8 |
| 20260905104540 | 12 | 0 | 0.0 | 3.2 | 0.00 | 0.00 | 0.00 | 97 | 1010.8 |
| 20260905103045 | 12 | 0 | 0.0 | 0.0 | 0.00 | 0.00 | 0.00 | 96 | 1010.7 |
| 20260905101552 | 11 | 0 | 0.0 | 0.0 | 0.00 | 0.00 | 0.00 | 96 | 1010.5 |
| 20260905100041 | 11 | 0 | 0.0 | 0.0 | 0.00 | 0.00 | 0.00 | 96 | 1010.4 |
| 20260905094543 | 11 | 0 | 0.0 | 0.0 | 0.00 | 0.00 | 0.00 | 96 | 1010.3 |